Location: Marsån
(66.4167°N, 22.2833°E)
Time: 08:43:33
(UTC+00:00)

Cosmos 1833 Rocket - Pass Details

Date: 24 February 2024
Orbit: 833 x 838 km, 71.0° (Epoch: 20 April)

Event Time Altitude Azimuth Distance (km) Brightness Sun altitude
Rises 18:16:43 0° 227° (SW) 3,388 6.3 -17.8°
Reaches altitude 10° 18:19:09 10° 227° (SW) 2,455 5.5 -18.0°
Maximum altitude 18:24:48 84° 141° (SE) 851 2.6 -18.6°
Enters shadow 18:29:48 14° 54° (NE) 2,211 4.6 -19.0°
